Oklahoma City Wiley Post, OK

5:22 AM CDT on July 23, 2017 (GMT -0500)
Wiley Post

Weather History for KPWA - August, 2013

Change the Weather History Date:

Monday, August 26, 2013

  Actual Average Record
Temperature  
Mean Temperature 81 °F -  
Max Temperature 91 °F 88 °F 105 °F (1999)
Min Temperature 72 °F 67 °F 52 °F (1964)
Cooling Degree Days 16    
Growing Degree Days 31 (Base 50)    
Moisture  
Dew Point 64 °F    
Average Humidity 54    
Maximum Humidity 73    
Minimum Humidity 40    
Precipitation  
Precipitation 0.00 in - - ()
Sea Level Pressure  
Sea Level Pressure 30.10 in    
Wind  
Wind Speed 11 mph (SSE)    
Max Wind Speed 15 mph    
Max Gust Speed 17 mph    
Visibility 10 miles    
Events      
Averages and records for this station are not official NWS values.
T = Trace of Precipitation, MM = Missing Value Source: NWS Daily Summary

Daily Weather History Graph

Daily Weather History Graph

Search for Another Location

Airport or City:

Trip Planner

Search our weather history database for the weather conditions in past years. The results will help you decide how hot, cold, wet, or windy it might be!

Date:

Astronomy

Aug. 26, 2013 Rise Set
Actual Time 6:58 AM CDT 8:05 PM CDT
Civil Twilight 6:32 AM CDT 8:31 PM CDT
Nautical Twilight 6:00 AM CDT 9:03 PM CDT
Astronomical Twilight 5:28 AM CDT 9:35 PM CDT
Moon 11:31 PM CDT (8/26) 12:47 PM CDT (8/26)
Length of Visible Light 13h 59m
Length of Day
13h 07m
Waning Gibbous, 66% of the Moon is Illuminated
Aug 26
Waning Gibbous
Aug 28
Last Quarter
Sep 5
New
Sep 12
First Quarter
Sep 19
Full

Hourly Weather History & Observations

Time (CDT) Temp. Heat Index Dew Point Humidity Pressure Visibility Wind Dir Wind Speed Gust Speed Precip Events Conditions
12:53 AM 82.0 °F 84.1 °F 66.0 °F 58% 30.10 in 9.0 mi SSE 12.7 mph - N/A   Clear
1:53 AM 81.0 °F 82.5 °F 64.0 °F 56% 30.10 in 10.0 mi SSE 15.0 mph - N/A   Clear
2:53 AM 80.1 °F 81.5 °F 63.0 °F 56% 30.11 in 10.0 mi SSE 13.8 mph - N/A   Clear
3:53 AM 78.1 °F - 63.0 °F 60% 30.11 in 10.0 mi South 11.5 mph - N/A   Clear
4:53 AM 75.0 °F - 63.0 °F 66% 30.11 in 10.0 mi South 9.2 mph - N/A   Clear
5:53 AM 73.0 °F - 63.0 °F 71% 30.12 in 10.0 mi South 8.1 mph - N/A   Clear
6:53 AM 72.0 °F - 63.0 °F 73% 30.14 in 9.0 mi South 6.9 mph - N/A   Clear
7:53 AM 75.0 °F - 64.0 °F 69% 30.15 in 8.0 mi South 9.2 mph - N/A   Clear
8:53 AM 79.0 °F - 64.9 °F 62% 30.15 in 9.0 mi South 10.4 mph - N/A   Clear
9:53 AM 82.0 °F 84.1 °F 66.0 °F 58% 30.15 in 9.0 mi SSW 12.7 mph - N/A   Clear
10:53 AM 84.9 °F 87.6 °F 66.9 °F 55% 30.16 in 9.0 mi SSW 11.5 mph - N/A   Clear
11:53 AM 86.0 °F 88.2 °F 66.0 °F 51% 30.16 in 10.0 mi SSW 10.4 mph - N/A   Clear
12:53 PM 88.0 °F 91.4 °F 68.0 °F 51% 30.14 in 10.0 mi South 11.5 mph 17.3 mph N/A   Partly Cloudy
1:53 PM 88.0 °F 90.3 °F 66.0 °F 48% 30.12 in 10.0 mi South 6.9 mph - N/A   Partly Cloudy
2:53 PM 88.0 °F 89.6 °F 64.9 °F 46% 30.11 in 10.0 mi SSE 10.4 mph - N/A   Partly Cloudy
3:53 PM 90.0 °F 91.3 °F 64.0 °F 42% 30.08 in 10.0 mi South 8.1 mph - N/A   Partly Cloudy
4:53 PM 90.0 °F 90.6 °F 63.0 °F 40% 30.07 in 10.0 mi South 11.5 mph - N/A   Scattered Clouds
5:53 PM 90.0 °F 90.6 °F 63.0 °F 40% 30.06 in 10.0 mi SE 12.7 mph - N/A   Partly Cloudy
6:53 PM 88.0 °F 88.7 °F 63.0 °F 43% 30.05 in 9.0 mi SE 8.1 mph - N/A   Clear
7:53 PM 86.0 °F 87.3 °F 64.0 °F 48% 30.05 in 9.0 mi SE 9.2 mph - N/A   Clear
8:53 PM 84.0 °F 85.4 °F 64.0 °F 51% 30.06 in 10.0 mi SE 5.8 mph - N/A   Clear
9:53 PM 82.0 °F 83.4 °F 64.0 °F 54% 30.07 in 10.0 mi SE 6.9 mph - N/A   Clear
10:53 PM 81.0 °F 82.2 °F 63.0 °F 54% 30.06 in 9.0 mi SE 9.2 mph - N/A   Clear
11:53 PM 80.1 °F 81.5 °F 63.0 °F 56% 30.06 in 9.0 mi SE 8.1 mph - N/A   Clear